DW0529 Weather Reports


Display with metric or nautical units.
time (UTC)temp
F
wind
direction
speed
MPH
gust
MPH
rain 1hr
in
rain 24hr
in
rain mn
in
humidity
%
barometer
mb
20260902192033 75 162 1.0 6.0 0.00 0.00 0.00 53 971.6
20260902191054 75 216 1.0 6.0 0.00 0.00 0.00 54 971.7
20260902185048 75 192 0.0 3.0 0.00 0.00 0.00 57 971.9
20260902184031 75 231 1.0 5.0 0.00 0.00 0.00 57 972.0
20260902180924 73 190 1.0 6.0 0.00 0.00 0.00 56 972.0
20260902174814 73 220 1.0 5.0 0.00 0.00 0.00 55 971.9
20260902173745 73 239 0.0 5.0 0.00 0.00 0.00 57 971.9
20260902172807 72 175 0.0 2.0 0.00 0.00 0.00 60 972.0
20260902170824 70 206 0.0 2.0 0.00 0.00 0.00 65 971.9
20260902164752 69 240 0.0 4.0 0.00 0.00 0.00 68 971.7
20260902163723 68 219 0.0 3.0 0.00 0.00 0.00 71 971.6
20260902161643 66 220 0.0 1.0 0.00 0.00 0.00 75 971.7
20260902160700 65 213 0.0 0.0 0.00 0.00 0.00 80 971.7
20260902155659 64 212 0.0 3.0 0.00 0.00 0.00 84 971.7
20260902154716 62 212 0.0 1.0 0.00 0.00 0.00 89 971.6
20260902153728 61 211 0.0 3.0 0.00 0.00 0.00 92 971.5
20260902151753 60 121 0.0 0.0 0.00 0.00 0.00 96 971.5
20260902145642 60 121 0.0 0.0 0.00 0.00 0.00 97 971.5
20260902144639 59 119 0.0 0.0 0.00 0.00 0.00 97 971.5
20260902143614 59 119 0.0 0.0 0.00 0.00 0.00 97 971.5
20260902142612 58 119 0.0 0.0 0.00 0.00 0.00 96 971.4
20260902141632 58 119 0.0 0.0 0.00 0.00 0.00 96 971.3
20260902140636 58 120 0.0 0.0 0.00 0.00 0.00 96 971.1
20260902135602 58 120 0.0 0.0 0.00 0.00 0.00 96 970.9
20260902133429 58 120 0.0 0.0 0.00 0.00 0.00 96 970.9
20260902132418 58 119 0.0 0.0 0.00 0.00 0.00 96 970.9
20260902131429 59 119 0.0 0.0 0.00 0.00 0.00 96 970.8
20260902130448 59 119 0.0 0.0 0.00 0.00 0.00 96 970.8
20260902125415 59 119 0.0 0.0 0.00 0.00 0.00 96 970.9
20260902124408 59 119 0.0 0.0 0.00 0.00 0.00 96 970.9
20260902123342 59 119 0.0 0.0 0.00 0.00 0.00 96 970.8
20260902122350 59 119 0.0 0.0 0.00 0.00 0.00 96 970.9
20260902120220 59 119 0.0 0.0 0.00 0.00 0.00 95 971.0
20260902115241 59 119 0.0 0.0 0.00 0.00 0.00 95 971.1
20260902114237 59 119 0.0 0.0 0.00 0.00 0.00 95 971.1
20260902112122 59 119 0.0 0.0 0.00 0.00 0.00 95 971.0
20260902111059 59 119 0.0 0.0 0.00 0.00 0.00 95 970.9
20260902110031 59 119 0.0 0.0 0.00 0.00 0.00 95 971.0
20260902105042 60 119 0.0 0.0 0.00 0.00 0.00 95 971.0
20260902104051 60 119 0.0 0.0 0.00 0.00 0.00 95 971.0
20260902103042 60 119 0.0 0.0 0.00 0.00 0.00 94 971.0
20260902095739 60 119 0.0 0.0 0.00 0.00 0.00 94 970.9
20260902094756 60 119 0.0 0.0 0.00 0.00 0.00 94 970.9
20260902093812 60 119 0.0 0.0 0.00 0.00 0.00 93 970.9
20260902092819 60 119 0.0 0.0 0.00 0.00 0.00 93 970.9
20260902090707 59 119 0.0 0.0 0.00 0.00 0.00 92 970.8
20260902085653 60 119 0.0 0.0 0.00 0.00 0.00 91 970.9
20260902084711 60 119 0.0 0.0 0.00 0.00 0.00 91 970.9
20260902083707 60 119 0.0 0.0 0.00 0.00 0.00 91 970.9
20260902082727 60 119 0.0 0.0 0.00 0.00 0.00 90 970.9
20260902081750 60 119 0.0 0.0 0.00 0.00 0.00 90 970.9
20260902080716 60 119 0.0 0.0 0.00 0.00 0.00 90 971.0
20260902075648 60 119 0.0 0.0 0.00 0.00 0.00 88 971.0
20260902072433 60 119 0.0 0.0 0.00 0.00 0.00 86 970.9
20260902070330 61 119 0.0 0.0 0.00 0.00 0.00 83 970.8
20260902065351 61 119 0.0 0.0 0.00 0.00 0.00 82 970.8
20260902064351 61 119 0.0 0.0 0.00 0.00 0.00 80 970.7
20260902063406 62 119 0.0 0.0 0.00 0.00 0.00 78 970.7
20260902062416 62 119 0.0 0.0 0.00 0.00 0.00 76 970.8
20260902060253 62 119 0.0 0.0 0.00 0.00 0.00 73 970.7
20260902055258 62 119 0.0 0.0 0.00 0.00 0.00 76 970.7
20260902053117 63 119 0.0 0.0 0.00 0.00 0.00 76 970.7
20260902052057 63 119 0.0 0.0 0.00 0.00 0.00 72 970.7
20260902051037 64 119 0.0 0.0 0.00 0.00 0.00 76 970.7
20260902044824 65 121 0.0 0.0 0.00 0.00 0.00 66 970.6
20260902042659 65 0 0.0 2.0 0.00 0.00 0.00 27 970.3
20260902041712 63 120 0.0 0.0 0.00 0.00 0.00 27 970.1
20260902040700 63 120 0.0 0.0 0.00 0.00 0.00 45 970.1
20260902035701 62 120 0.0 0.0 0.00 0.00 0.00 62 970.0
20260902034644 62 120 0.0 1.0 0.00 0.00 0.00 61 969.8
20260902032448 63 120 0.0 0.0 0.00 0.00 0.00 79 969.7
20260902031446 63 210 0.0 0.0 0.00 0.00 0.00 74 969.7
20260902025354 64 210 0.0 0.0 0.00 0.00 0.00 77 969.5
20260902023209 65 209 0.0 2.0 0.00 0.00 0.00 74 969.3
20260902022229 66 0 1.0 4.0 0.00 0.00 0.00 75 969.2
20260902021224 67 200 1.0 4.0 0.00 0.00 0.00 73 969.3
20260902020222 68 202 1.0 4.0 0.00 0.00 0.00 71 969.3
20260902014110 70 190 1.0 4.0 0.00 0.00 0.00 64 969.4
20260902013124 71 198 1.0 6.0 0.00 0.00 0.00 58 969.4
20260902012137 72 192 2.0 6.0 0.00 0.00 0.00 56 969.3
20260902011104 73 167 1.0 5.0 0.00 0.00 0.00 53 969.4
20260902005014 75 209 1.0 4.0 0.00 0.00 0.00 45 969.6
20260902001740 76 197 1.0 5.0 0.00 0.00 0.00 37 969.7
20260902000718 76 213 1.0 5.0 0.00 0.00 0.00 38 969.6
20260901235731 77 269 1.0 6.0 0.00 0.00 0.00 37 969.7
20260901234714 77 229 1.0 8.0 0.00 0.00 0.00 31 969.7
20260901233703 76 229 2.0 8.0 0.00 0.00 0.00 34 969.6
20260901231522 76 244 2.0 9.0 0.00 0.00 0.00 37 969.7
20260901230458 75 237 3.0 9.0 0.00 0.00 0.00 42 969.9
20260901225502 76 194 2.0 8.0 0.00 0.00 0.00 38 970.0
20260901224436 77 235 3.0 9.0 0.00 0.00 0.00 35 970.0
20260901222321 78 206 2.0 7.0 0.00 0.00 0.00 43 970.0
20260901221338 78 239 3.0 10.0 0.00 0.00 0.00 35 970.0
20260901220314 79 209 3.0 10.0 0.00 0.00 0.00 36 970.0
20260901215255 80 221 2.0 8.0 0.00 0.00 0.00 36 970.2
20260901214237 80 219 2.0 6.0 0.00 0.00 0.00 33 970.3
20260901213259 80 215 2.0 7.0 0.00 0.00 0.00 32 970.3
20260901212238 79 221 3.0 8.0 0.00 0.00 0.00 29 970.4
20260901210107 78 226 4.0 9.0 0.00 0.00 0.00 32 970.4
20260901205039 78 213 3.0 8.0 0.00 0.00 0.00 27 970.7
20260901204103 78 268 2.0 8.0 0.00 0.00 0.00 37 970.6
20260901201937 77 224 2.0 9.0 0.00 0.00 0.00 45 970.7
20260901200941 77 223 2.0 8.0 0.00 0.00 0.00 46 970.8
20260901200002 76 230 3.0 8.0 0.00 0.00 0.00 50 970.9
20260901194938 77 213 2.0 7.0 0.00 0.00 0.00 49 970.9